OBJECT D

Satellite information

Favourite Embed

Satellite Type and Status

UNKNOWNIN ORBIT

Key statistics

Satellite OBJECT D at a glance.

Uptime

1136

Days in orbit

Revolutions

≈ 15.1

Per day

Orbit

SSO

Sun Synchronous Orbit

Inclination

97.6

Latest

Satellite identification and parameters

Extended collection of information and parameters for OBJECT D.

Object identification

Identified? True

Debris? False

Object name: OBJECT D

International designator: 2022-032D

Object number (NORAD): 52156

Object ID (CCSDS): 52156

Country: PEOPLES REPUBLIC OF CHINA (PRC)

Current information (Y/N): Y

RCS size: MEDIUM

Orbital parameters

Period: 95.607 minutes

Inclination: 97.6351 deg

SMA: 6926.066 km

Apoapsis: 553.954 km

Periapsis: 541.907 km

RAAN: 179.8052 deg

Eccentricy: 0.0008697

Argument of periapsis: 100.9745 deg

Mean anomaly: 259.246 deg

Mean motion: 15.06166105 rev/day

Mean motion (dot): 0.00006615 rev/day2

B* drag term: 0.00045555 1/REarth

Two-line elements (TLE)

Creation date: May 9, 2025, 2:46 a.m.

Reference frame: TEME

Reference center: EARTH

Epoch: May 8, 2025, 11:05 p.m. UTC

TLE line 0: 0 OBJECT D

TLE line 1: 1 52156U 22032D 25128.96236157 .00006615 00000-0 45555-3 0 9990

TLE line 2: 2 52156 97.6351 179.8052 0008697 100.9745 259.2460 15.06166105169904

Live tracking on map

Real-time ground track for satellite OBJECT D.

In-orbit conjunctions

There are no conjunctions computed for OBJECT D, at the moment. Check back to stay up to date, as we update our databases every day.

Go to all conjunctions

Associated space launch

The Tianping-2 A/B/C satellites were built by the China Aerospace Science and Industry Corporation (CASIC) and will be used as calibration targets for services such as atmospheric space environment study and orbital prediction model correction.

OBJECT D was lifted into orbit during the mission ‘Long March 11 | Tianping-2 A/B/C’, on board a Long March 11 space rocket.

The launch took place on March 30, 2022, 2:29 a.m. from Launch Area 95A.

For more information about the launch, click the button.

Launch to space Long March 11 | Tianping-2 A/B/C
Long March 11 | Tianping-2 A/B/C

Agency: N/A

Status: Launch Successful

Launch date: March 30, 2022, 2:29 a.m. UTC

Rocket: Long March 11

Launch pad: Launch Area 95A

Location: Jiuquan Satellite Launch Center, People's Republic of China

...

Latest news about this satellite

There are no fresh news available about this satellite. Check back as we update our databases every day.


Newsletter sign-up

Weekly statistics, charts and insights to help you stay on top of the space industry.